| time (UTC) | temp C | wind direction | speed KPH | gust KPH | rain 1hr cm | rain 24hr cm | rain mn cm | humidity % | barometer mb |
| 20260510234550 | 16 | 0.0 | 0.0 | 0.00 | 0.00 | 0.00 | 39 | 932.8 | |
| 20260510233550 | 16 | 0.0 | 0.0 | 0.00 | 0.00 | 0.00 | 40 | 932.7 | |
| 20260510232550 | 16 | 0.0 | 0.0 | 0.00 | 0.00 | 0.00 | 40 | 932.6 | |
| 20260510231550 | 16 | 0.0 | 0.0 | 0.00 | 0.00 | 0.00 | 40 | 932.6 | |
| 20260510230550 | 16 | 0.0 | 0.0 | 0.00 | 0.00 | 0.00 | 40 | 932.6 | |
| 20260510225550 | 16 | 0.0 | 0.0 | 0.00 | 0.00 | 0.00 | 40 | 932.5 | |
| 20260510224550 | 16 | 0.0 | 0.0 | 0.00 | 0.00 | 0.00 | 40 | 932.5 | |
| 20260510223550 | 16 | 0.0 | 0.0 | 0.00 | 0.00 | 0.00 | 40 | 932.3 | |
| 20260510222550 | 16 | 0.0 | 0.0 | 0.00 | 0.00 | 0.00 | 40 | 932.3 | |
| 20260510221550 | 16 | 0.0 | 0.0 | 0.00 | 0.00 | 0.00 | 40 | 932.3 | |
| 20260510220550 | 16 | 0.0 | 0.0 | 0.00 | 0.00 | 0.00 | 40 | 932.2 | |
| 20260510215550 | 16 | 0.0 | 0.0 | 0.00 | 0.00 | 0.00 | 40 | 932.0 | |
| 20260510214550 | 16 | 0.0 | 0.0 | 0.00 | 0.00 | 0.00 | 40 | 932.1 | |
| 20260510213550 | 16 | 0.0 | 0.0 | 0.00 | 0.00 | 0.00 | 41 | 932.1 | |
| 20260510212550 | 16 | 0.0 | 0.0 | 0.00 | 0.00 | 0.00 | 41 | 932.1 | |
| 20260510211550 | 16 | 0.0 | 0.0 | 0.00 | 0.00 | 0.00 | 41 | 931.9 | |
| 20260510210550 | 16 | 0.0 | 0.0 | 0.00 | 0.00 | 0.00 | 41 | 931.9 | |
| 20260510205550 | 16 | 0.0 | 0.0 | 0.00 | 0.00 | 0.00 | 41 | 931.9 | |
| 20260510204550 | 17 | 0.0 | 0.0 | 0.00 | 0.00 | 0.00 | 41 | 931.8 | |
| 20260510203550 | 17 | 0.0 | 0.0 | 0.00 | 0.00 | 0.00 | 41 | 931.7 | |
| 20260510202550 | 17 | 0.0 | 0.0 | 0.00 | 0.00 | 0.00 | 41 | 931.5 | |
| 20260510201550 | 17 | 0.0 | 0.0 | 0.00 | 0.00 | 0.00 | 41 | 931.5 | |
| 20260510200550 | 17 | 0.0 | 0.0 | 0.00 | 0.00 | 0.00 | 41 | 931.3 | |
| 20260510195550 | 17 | 0.0 | 0.0 | 0.00 | 0.00 | 0.00 | 41 | 931.1 | |
| 20260510194550 | 17 | 0.0 | 0.0 | 0.00 | 0.00 | 0.00 | 41 | 931.1 | |
| 20260510193550 | 17 | 0.0 | 0.0 | 0.00 | 0.00 | 0.00 | 41 | 931.0 | |
| 20260510192550 | 17 | 0.0 | 0.0 | 0.00 | 0.00 | 0.00 | 40 | 930.9 | |
| 20260510191550 | 17 | 0.0 | 0.0 | 0.00 | 0.00 | 0.00 | 40 | 930.9 | |
| 20260510190550 | 17 | 0.0 | 0.0 | 0.00 | 0.00 | 0.00 | 40 | 930.7 | |
| 20260510185550 | 17 | 0.0 | 0.0 | 0.00 | 0.00 | 0.00 | 38 | 930.7 | |
| 20260510184550 | 17 | 0.0 | 0.0 | 0.00 | 0.00 | 0.00 | 40 | 930.5 | |
| 20260510183550 | 17 | 0.0 | 0.0 | 0.00 | 0.00 | 0.00 | 38 | 930.5 | |
| 20260510182550 | 17 | 0.0 | 0.0 | 0.00 | 0.00 | 0.00 | 38 | 930.4 | |
| 20260510181550 | 17 | 0.0 | 0.0 | 0.00 | 0.00 | 0.00 | 37 | 930.4 | |
| 20260510180550 | 17 | 0.0 | 0.0 | 0.00 | 0.00 | 0.00 | 38 | 930.2 | |
| 20260510175550 | 17 | 0.0 | 0.0 | 0.00 | 0.00 | 0.00 | 38 | 930.1 | |
| 20260510174550 | 17 | 0.0 | 0.0 | 0.00 | 0.00 | 0.00 | 39 | 930.0 | |
| 20260510173550 | 17 | 0.0 | 0.0 | 0.00 | 0.00 | 0.00 | 41 | 930.0 | |
| 20260510172550 | 17 | 0.0 | 0.0 | 0.00 | 0.00 | 0.00 | 40 | 930.1 | |
| 20260510171550 | 17 | 0.0 | 0.0 | 0.00 | 0.00 | 0.00 | 39 | 930.1 | |
| 20260510170550 | 17 | 0.0 | 0.0 | 0.00 | 0.00 | 0.00 | 41 | 930.1 | |
| 20260510165550 | 17 | 0.0 | 0.0 | 0.00 | 0.00 | 0.00 | 42 | 930.0 | |
| 20260510164550 | 17 | 0.0 | 0.0 | 0.00 | 0.00 | 0.00 | 37 | 930.1 | |
| 20260510163550 | 17 | 0.0 | 0.0 | 0.00 | 0.00 | 0.00 | 40 | 930.2 | |
| 20260510162550 | 17 | 0.0 | 0.0 | 0.00 | 0.00 | 0.00 | 42 | 930.1 | |
| 20260510161550 | 17 | 0.0 | 0.0 | 0.00 | 0.00 | 0.00 | 45 | 930.0 | |
| 20260510160550 | 16 | 0.0 | 0.0 | 0.00 | 0.00 | 0.00 | 45 | 930.0 | |
| 20260510155550 | 16 | 0.0 | 0.0 | 0.00 | 0.00 | 0.00 | 45 | 930.0 | |
| 20260510154550 | 16 | 0.0 | 0.0 | 0.00 | 0.00 | 0.00 | 42 | 929.9 | |
| 20260510153550 | 16 | 0.0 | 0.0 | 0.00 | 0.00 | 0.00 | 44 | 929.7 | |
| 20260510152550 | 16 | 0.0 | 0.0 | 0.00 | 0.00 | 0.00 | 46 | 929.7 | |
| 20260510151550 | 15 | 0.0 | 0.0 | 0.00 | 0.00 | 0.00 | 46 | 929.8 | |
| 20260510150550 | 15 | 0.0 | 0.0 | 0.00 | 0.00 | 0.00 | 47 | 930.0 | |
| 20260510145550 | 15 | 0.0 | 0.0 | 0.00 | 0.00 | 0.00 | 48 | 930.2 | |
| 20260510144550 | 16 | 0.0 | 0.0 | 0.00 | 0.00 | 0.00 | 45 | 930.3 | |
| 20260510143550 | 16 | 0.0 | 0.0 | 0.00 | 0.00 | 0.00 | 43 | 930.1 | |
| 20260510142550 | 16 | 0.0 | 0.0 | 0.00 | 0.00 | 0.00 | 40 | 930.0 | |
| 20260510141550 | 16 | 0.0 | 0.0 | 0.00 | 0.00 | 0.00 | 42 | 930.2 | |
| 20260510140550 | 16 | 0.0 | 0.0 | 0.00 | 0.00 | 0.00 | 43 | 930.2 | |
| 20260510135550 | 16 | 0.0 | 0.0 | 0.00 | 0.00 | 0.00 | 43 | 930.3 | |
| 20260510134550 | 16 | 0.0 | 0.0 | 0.00 | 0.00 | 0.00 | 42 | 930.3 | |
| 20260510133550 | 16 | 0.0 | 0.0 | 0.00 | 0.00 | 0.00 | 43 | 930.3 | |
| 20260510132550 | 15 | 0.0 | 0.0 | 0.00 | 0.00 | 0.00 | 43 | 930.3 | |
| 20260510131550 | 15 | 0.0 | 0.0 | 0.00 | 0.00 | 0.00 | 44 | 930.4 | |
| 20260510130550 | 15 | 0.0 | 0.0 | 0.00 | 0.00 | 0.00 | 44 | 930.5 | |
| 20260510125550 | 15 | 0.0 | 0.0 | 0.00 | 0.00 | 0.00 | 46 | 930.5 | |
| 20260510124550 | 15 | 0.0 | 0.0 | 0.00 | 0.00 | 0.00 | 46 | 930.6 | |
| 20260510123550 | 14 | 0.0 | 0.0 | 0.00 | 0.00 | 0.00 | 47 | 930.8 | |
| 20260510122550 | 14 | 0.0 | 0.0 | 0.00 | 0.00 | 0.00 | 46 | 931.1 | |
| 20260510121550 | 14 | 0.0 | 0.0 | 0.00 | 0.00 | 0.00 | 47 | 931.0 | |
| 20260510120550 | 14 | 0.0 | 0.0 | 0.00 | 0.00 | 0.00 | 48 | 931.3 | |
| 20260510115550 | 13 | 0.0 | 0.0 | 0.00 | 0.00 | 0.00 | 48 | 931.2 | |
| 20260510114550 | 13 | 0.0 | 0.0 | 0.00 | 0.00 | 0.00 | 48 | 931.3 | |
| 20260510113550 | 13 | 0.0 | 0.0 | 0.00 | 0.00 | 0.00 | 49 | 931.2 | |
| 20260510112550 | 13 | 0.0 | 0.0 | 0.00 | 0.00 | 0.00 | 49 | 931.3 | |
| 20260510111551 | 13 | 0.0 | 0.0 | 0.00 | 0.00 | 0.00 | 49 | 931.5 | |
| 20260510110550 | 13 | 0.0 | 0.0 | 0.00 | 0.00 | 0.00 | 49 | 931.4 | |
| 20260510105550 | 13 | 0.0 | 0.0 | 0.00 | 0.00 | 0.00 | 49 | 931.2 | |
| 20260510104550 | 12 | 0.0 | 0.0 | 0.00 | 0.00 | 0.00 | 49 | 931.2 | |
| 20260510103550 | 12 | 0.0 | 0.0 | 0.00 | 0.00 | 0.00 | 50 | 931.3 | |
| 20260510102550 | 12 | 0.0 | 0.0 | 0.00 | 0.00 | 0.00 | 48 | 931.4 | |
| 20260510101550 | 12 | 0.0 | 0.0 | 0.00 | 0.00 | 0.00 | 49 | 931.6 | |
| 20260510100550 | 11 | 0.0 | 0.0 | 0.00 | 0.00 | 0.00 | 49 | 931.9 | |
| 20260510095550 | 11 | 0.0 | 0.0 | 0.00 | 0.00 | 0.00 | 49 | 931.8 | |
| 20260510094550 | 11 | 0.0 | 0.0 | 0.00 | 0.00 | 0.00 | 49 | 932.1 | |
| 20260510093549 | 11 | 0.0 | 0.0 | 0.00 | 0.00 | 0.00 | 50 | 931.9 | |
| 20260510092550 | 12 | 0.0 | 0.0 | 0.00 | 0.00 | 0.00 | 50 | 931.7 | |
| 20260510091550 | 13 | 0.0 | 0.0 | 0.00 | 0.00 | 0.00 | 52 | 931.5 | |
| 20260510090550 | 13 | 0.0 | 0.0 | 0.00 | 0.00 | 0.00 | 52 | 931.1 | |
| 20260510085549 | 14 | 0.0 | 0.0 | 0.00 | 0.00 | 0.00 | 50 | 930.7 | |
| 20260510084549 | 15 | 0.0 | 0.0 | 0.00 | 0.00 | 0.00 | 47 | 930.6 | |
| 20260510083549 | 15 | 0.0 | 0.0 | 0.00 | 0.00 | 0.00 | 41 | 930.6 | |
| 20260510082549 | 15 | 0.0 | 0.0 | 0.00 | 0.00 | 0.00 | 41 | 930.6 | |
| 20260510081549 | 15 | 0.0 | 0.0 | 0.00 | 0.00 | 0.00 | 41 | 930.6 | |
| 20260510080549 | 15 | 0.0 | 0.0 | 0.00 | 0.00 | 0.00 | 41 | 930.5 | |
| 20260510075550 | 15 | 0.0 | 0.0 | 0.00 | 0.00 | 0.00 | 41 | 930.6 | |
| 20260510074549 | 15 | 0.0 | 0.0 | 0.00 | 0.00 | 0.00 | 42 | 930.3 | |
| 20260510073549 | 15 | 0.0 | 0.0 | 0.00 | 0.00 | 0.00 | 42 | 930.2 | |
| 20260510072549 | 15 | 0.0 | 0.0 | 0.00 | 0.00 | 0.00 | 40 | 930.4 | |
| 20260510071549 | 15 | 0.0 | 0.0 | 0.00 | 0.00 | 0.00 | 40 | 930.4 | |
| 20260510070549 | 15 | 0.0 | 0.0 | 0.00 | 0.00 | 0.00 | 40 | 930.4 | |
| 20260510065549 | 15 | 0.0 | 0.0 | 0.00 | 0.00 | 0.00 | 40 | 930.5 | |
| 20260510064549 | 15 | 0.0 | 0.0 | 0.00 | 0.00 | 0.00 | 40 | 930.5 | |
| 20260510063549 | 15 | 0.0 | 0.0 | 0.00 | 0.00 | 0.00 | 40 | 930.3 | |
| 20260510062549 | 15 | 0.0 | 0.0 | 0.00 | 0.00 | 0.00 | 40 | 930.2 | |
| 20260510061549 | 15 | 0.0 | 0.0 | 0.00 | 0.00 | 0.00 | 40 | 930.2 | |
| 20260510060549 | 15 | 0.0 | 0.0 | 0.00 | 0.00 | 0.00 | 40 | 930.4 | |
| 20260510055549 | 15 | 0.0 | 0.0 | 0.00 | 0.00 | 0.00 | 40 | 930.5 | |
| 20260510054549 | 15 | 0.0 | 0.0 | 0.00 | 0.00 | 0.00 | 40 | 930.4 | |
| 20260510053549 | 15 | 0.0 | 0.0 | 0.00 | 0.00 | 0.00 | 40 | 930.4 | |
| 20260510052549 | 15 | 0.0 | 0.0 | 0.00 | 0.00 | 0.00 | 40 | 930.4 | |
| 20260510051549 | 15 | 0.0 | 0.0 | 0.00 | 0.00 | 0.00 | 40 | 930.4 | |
| 20260510050549 | 16 | 0.0 | 0.0 | 0.00 | 0.00 | 0.00 | 40 | 930.4 | |
| 20260510045549 | 16 | 0.0 | 0.0 | 0.00 | 0.00 | 0.00 | 40 | 930.3 | |
| 20260510044549 | 16 | 0.0 | 0.0 | 0.00 | 0.00 | 0.00 | 40 | 930.4 | |
| 20260510043549 | 16 | 0.0 | 0.0 | 0.00 | 0.00 | 0.00 | 40 | 930.4 | |
| 20260510042549 | 16 | 0.0 | 0.0 | 0.00 | 0.00 | 0.00 | 40 | 930.4 | |
| 20260510041549 | 16 | 0.0 | 0.0 | 0.00 | 0.00 | 0.00 | 40 | 930.5 | |
| 20260510040549 | 16 | 0.0 | 0.0 | 0.00 | 0.00 | 0.00 | 40 | 930.6 | |
| 20260510035549 | 16 | 0.0 | 0.0 | 0.00 | 0.00 | 0.00 | 40 | 930.7 | |
| 20260510034549 | 16 | 0.0 | 0.0 | 0.00 | 0.00 | 0.00 | 40 | 930.7 | |
| 20260510033549 | 15 | 0.0 | 0.0 | 0.00 | 0.00 | 0.00 | 40 | 930.8 | |
| 20260510032549 | 16 | 0.0 | 0.0 | 0.00 | 0.00 | 0.00 | 40 | 930.9 | |
| 20260510031549 | 16 | 0.0 | 0.0 | 0.00 | 0.00 | 0.00 | 40 | 930.9 | |
| 20260510030549 | 16 | 0.0 | 0.0 | 0.00 | 0.00 | 0.00 | 40 | 930.9 | |
| 20260510025549 | 16 | 0.0 | 0.0 | 0.00 | 0.00 | 0.00 | 40 | 930.8 | |
| 20260510024549 | 16 | 0.0 | 0.0 | 0.00 | 0.00 | 0.00 | 40 | 930.9 | |
| 20260510023549 | 16 | 0.0 | 0.0 | 0.00 | 0.00 | 0.00 | 40 | 930.9 | |
| 20260510022549 | 16 | 0.0 | 0.0 | 0.00 | 0.00 | 0.00 | 40 | 930.9 | |
| 20260510021549 | 16 | 0.0 | 0.0 | 0.00 | 0.00 | 0.00 | 40 | 931.0 | |
| 20260510020549 | 16 | 0.0 | 0.0 | 0.00 | 0.00 | 0.00 | 40 | 931.0 | |
| 20260510015549 | 16 | 0.0 | 0.0 | 0.00 | 0.00 | 0.00 | 40 | 931.0 | |
| 20260510014549 | 16 | 0.0 | 0.0 | 0.00 | 0.00 | 0.00 | 41 | 931.1 | |
| 20260510013549 | 16 | 0.0 | 0.0 | 0.00 | 0.00 | 0.00 | 41 | 931.1 | |
| 20260510012549 | 16 | 0.0 | 0.0 | 0.00 | 0.00 | 0.00 | 41 | 931.0 | |
| 20260510011549 | 16 | 0.0 | 0.0 | 0.00 | 0.00 | 0.00 | 42 | 931.0 | |
| 20260510010549 | 16 | 0.0 | 0.0 | 0.00 | 0.00 | 0.00 | 42 | 931.1 | |
| 20260510005549 | 16 | 0.0 | 0.0 | 0.00 | 0.00 | 0.00 | 43 | 931.2 | |
| 20260510004549 | 16 | 0.0 | 0.0 | 0.00 | 0.00 | 0.00 | 44 | 931.3 | |
| 20260510003549 | 16 | 0.0 | 0.0 | 0.00 | 0.00 | 0.00 | 44 | 931.3 | |
| 20260510002549 | 16 | 0.0 | 0.0 | 0.00 | 0.00 | 0.00 | 45 | 931.2 | |
| 20260510001549 | 16 | 0.0 | 0.0 | 0.00 | 0.00 | 0.00 | 45 | 931.2 | |
| 20260510000549 | 16 | 0.0 | 0.0 | 0.00 | 0.00 | 0.00 | 46 | 931.3 | |
| 20260509235549 | 16 | 0.0 | 0.0 | 0.00 | 0.00 | 0.00 | 46 | 931.2 |